Zurück zum Katalog

STARLINK-33600

AktivKommunikationVLEO
NORAD 62772·PAYLOAD·🇺🇸 United States

Gestartet Jan 21, 2025 von Vandenberg Space Force Base

Loading…

Nächste Überflüge (nächste 24 Stunden)

TLE

AktuellSource: CelesTrak SupGP

Epoche: Sep 14, 2026, 21:47 UTC

1 62772C 25015Q   26257.90812500 -.00046402  00000+0 -14917-2 0  2572
2 62772  53.1569 162.4584 0001219  81.5209  32.0292 15.31734143    14

Verfolge STARLINK-33600 in Echtzeit mit AllMySat

Download on the App Store